Weather in Karasu

Russia / The Kabardino-Balkar Republic     43°17′45″N   43°24′48″E
temp.,
°C
wind,
m/s
gust,
m/s
humid.,
%
clouds,
%
prec.,
mm/h
press.,
hPa
HPBL,
m
2 march, tue
tue200:00−8sw3369100 0.0 103022
03:00−8sw3366100 0.0 103026
06:00−9sw44590 0.0 103128
09:00−4nne11690 0.0 1030225
12:00−3e21962 0.0 1027372
15:00−3ene219940 0.1 1026262
18:00−5sw118986 0.1 102625
21:00−7sw346559 0.1 102733
3 march, wed
wed300:00−7sw44610 0.0 102647
03:00−7sw44590 0.0 102544
06:00−7sw446254 0.0 102339
09:00−4n137444 0.0 1022245
12:00−3ne229593 0.0 1020311
15:00−3ene219197 0.3 1020300
18:00−7ese1196100 0.8 102342
21:00−8sw2389100 1.9 102648
4 march, thu
thu400:00−9sw3378100 0.6 102832
03:00−10sw336778 0.6 102925
06:00−11sw22645 0.0 102921
09:00−5ne10745 0.0 1028130
12:00−3ene11960 0.0 1026240
15:00−2ne11922 0.0 1024271
18:00−7sw118722 0.0 102423
21:00−7sw335919 0.0 102525
5 march, fri
fri500:00−6sw44530 0.0 102426
03:00−6sw33500 0.0 102322
06:00−6sw33460 0.0 102222
09:000nnw01820 0.0 102139
12:00+1nne11960 0.0 1019138
15:00+1n019927 0.0 1019135
18:00−2sw228021 0.0 102121
21:00−2sw445211 0.0 102228
6 march, sat
sat600:00−2sw54490 0.0 102230
03:00−2sw54490 0.0 102134
06:00−2sw544715 0.0 102032
09:00+3sw337326 0.0 101940
12:00+5nne11970 0.0 1016148
15:00+4wsw119050 0.0 101453
18:000sw4559100 0.0 101560
21:00−1sw5659100 0.0 101699